This is the latest recevied weather packets stored in our database for station/object KE0PRS. If no packets are shown the sender has not sent any weather packets the latest 10 day(s).
| Time | Temp. | Humidity | Pressure | Rain* | Wind** | Luminosity | Snow |
|---|---|---|---|---|---|---|---|
| 1787784770 | 34.44° C | 39% | 1017.9 hPa | 0 mm | - | 299 W/m² | - |
| 1787784469 | 35° C | 39% | 1017.8 hPa | 0 mm | - | 121 W/m² | - |
| 1787784169 | 34.44° C | 39% | 1017.8 hPa | 0 mm | - | 171 W/m² | - |
| 1787783865 | 34.44° C | 39% | 1017.9 hPa | 0 mm | - | 350 W/m² | - |
| 1787783561 | 35° C | 38% | 1018 hPa | 0 mm | - | 387 W/m² | - |
| 1787783255 | 35° C | 39% | 1018.1 hPa | 0 mm | - | 402 W/m² | - |
| 1787782950 | 35° C | 39% | 1018.1 hPa | 0 mm | - | 432 W/m² | - |
| 1787782649 | 35° C | 37% | 1018.1 hPa | 0 mm | - | 463 W/m² | - |
| 1787782340 | 35.56° C | 37% | 1018.2 hPa | 0 mm | - | 474 W/m² | - |
| 1787782035 | 35.56° C | 38% | 1018.2 hPa | 0 mm | - | 467 W/m² | - |
| 1787781730 | 35° C | 38% | 1018.2 hPa | 0 mm | - | 463 W/m² | - |
| 1787781427 | 35° C | 38% | 1018.4 hPa | 0 mm | - | 466 W/m² | - |
| 1787781121 | 35° C | 39% | 1018.6 hPa | 0 mm | - | 491 W/m² | - |
| 1787780820 | 35° C | 38% | 1018.5 hPa | 0 mm | - | 502 W/m² | - |
| 1787780514 | 35° C | 38% | 1018.5 hPa | 0 mm | - | 518 W/m² | - |
| 1787780210 | 35° C | 39% | 1018.5 hPa | 0 mm | - | 529 W/m² | - |
| 1787779905 | 34.44° C | 39% | 1018.7 hPa | 0 mm | - | 548 W/m² | - |
| 1787779600 | 34.44° C | 40% | 1018.7 hPa | 0 mm | - | 284 W/m² | - |
| 1787779300 | 34.44° C | 41% | 1019.1 hPa | 0 mm | - | 542 W/m² | - |
| 1787778994 | 34.44° C | 40% | 1018.9 hPa | 0 mm | - | 559 W/m² | - |
| 1787778690 | 34.44° C | 39% | 1019.1 hPa | 0 mm | - | 587 W/m² | - |
| 1787778386 | 35° C | 39% | 1019 hPa | 0 mm | - | 621 W/m² | - |
| 1787778081 | 35.56° C | 38% | 1019 hPa | 0 mm | - | 635 W/m² | - |
| 1787777780 | 35.56° C | 38% | 1019.1 hPa | 0 mm | - | 622 W/m² | - |
| 1787777478 | 35° C | 39% | 1019.1 hPa | 0 mm | - | 634 W/m² | - |
* Rain latest hour (hover to see other rain measurements)
** Current wind speed in m/s (hover to see current wind gust speed)